Satellite-Ground Cal/Val Region Overpasses Predictions

Prediction of Satellite NPP Overpassing Cal/Val Region: PacNW

Region Location: (Latitude: 10.00, Longitude: 139.50) to (Latitude: 22.70, Longitude: 165.60).

Table of predicted overpasses for the next 14.0 days since TLE Epoch: 6/1/2018
Interval Starting Time Starting Location Ending Time Ending Location
1 06/02/2018 02:26:31 ( 10.01, 163.09) 06/02/2018 02:30:07 ( 22.69, 160.07)
2 06/02/2018 14:58:25 ( 22.65, 160.32) 06/02/2018 15:02:00 ( 10.03, 157.31)
3 06/03/2018 02:10:12 ( 19.61, 165.59) 06/03/2018 02:11:04 ( 22.66, 164.84)
4 06/03/2018 03:48:59 ( 10.05, 142.46) 06/03/2018 03:52:31 ( 22.49, 139.50)
5 06/03/2018 14:39:22 ( 22.69, 165.08) 06/03/2018 14:42:58 ( 10.01, 162.07)
6 06/03/2018 16:20:52 ( 22.68, 139.71) 06/03/2018 16:21:06 ( 21.86, 139.50)
7 06/04/2018 03:29:57 ( 10.01, 147.23) 06/04/2018 03:33:33 ( 22.69, 144.21)
8 06/04/2018 16:01:51 ( 22.65, 144.46) 06/04/2018 16:05:26 ( 10.03, 141.46)
9 06/05/2018 03:10:55 ( 10.04, 151.98) 06/05/2018 03:14:30 ( 22.66, 148.98)
10 06/05/2018 15:42:48 ( 22.69, 149.23) 06/05/2018 15:46:24 ( 10.01, 146.21)
11 06/06/2018 02:51:53 ( 10.01, 156.75) 06/06/2018 02:55:29 ( 22.68, 153.73)
12 06/06/2018 15:23:47 ( 22.66, 153.98) 06/06/2018 15:27:22 ( 10.04, 150.98)
13 06/07/2018 02:32:52 ( 10.03, 161.50) 06/07/2018 02:36:27 ( 22.65, 158.50)
14 06/07/2018 15:04:44 ( 22.69, 158.75) 06/07/2018 15:08:20 ( 10.01, 155.73)
15 06/08/2018 02:14:39 ( 12.94, 165.59) 06/08/2018 02:17:25 ( 22.68, 163.25)
16 06/08/2018 03:55:19 ( 10.01, 140.89) 06/08/2018 03:57:01 ( 16.00, 139.50)
17 06/08/2018 14:45:43 ( 22.66, 163.50) 06/08/2018 14:49:18 ( 10.04, 160.49)
18 06/09/2018 03:36:18 ( 10.03, 145.64) 06/09/2018 03:39:53 ( 22.65, 142.64)
19 06/09/2018 14:29:50 ( 11.54, 165.60) 06/09/2018 14:30:16 ( 10.02, 165.25)
20 06/09/2018 16:08:10 ( 22.69, 142.89) 06/09/2018 16:11:46 ( 10.01, 139.87)
21 06/10/2018 03:17:15 ( 10.00, 150.41) 06/10/2018 03:20:51 ( 22.68, 147.39)
22 06/10/2018 15:49:09 ( 22.66, 147.64) 06/10/2018 15:52:44 ( 10.04, 144.64)
23 06/11/2018 02:58:14 ( 10.03, 155.16) 06/11/2018 03:01:49 ( 22.65, 152.16)
24 06/11/2018 15:30:06 ( 22.69, 152.41) 06/11/2018 15:33:42 ( 10.01, 149.39)
25 06/12/2018 02:39:12 ( 10.06, 159.92) 06/12/2018 02:42:47 ( 22.68, 156.91)
26 06/12/2018 15:11:05 ( 22.67, 157.16) 06/12/2018 15:14:40 ( 10.04, 154.16)
27 06/13/2018 02:20:10 ( 10.03, 164.68) 06/13/2018 02:23:45 ( 22.65, 161.68)
28 06/13/2018 14:52:03 ( 22.70, 161.93) 06/13/2018 14:55:39 ( 10.02, 158.91)
29 06/14/2018 03:42:37 ( 10.00, 144.07) 06/14/2018 03:46:13 ( 22.68, 141.05)
30 06/14/2018 14:34:16 ( 18.27, 165.60) 06/14/2018 14:36:36 ( 10.05, 163.67)
31 06/14/2018 16:14:31 ( 22.66, 141.30) 06/14/2018 16:16:37 ( 15.27, 139.51)
32 06/15/2018 03:23:36 ( 10.03, 148.82) 06/15/2018 03:27:11 ( 22.65, 145.82)


NCC Satellite Cal/Val Overpasses Prediction Service
